Middleton, WI

12:45 AM CDT on October 18, 2017 (GMT -0500)
Middleton

Weather History for KC29 - December, 2012

Change the Weather History Date:

Sunday, December 9, 2012

  Actual Average (KMSN) Record (KMSN)
Temperature  
Mean Temperature 34 °F -  
Max Temperature 36 °F 32 °F 60 °F (1946)
Min Temperature 33 °F 16 °F -22 °F (1876)
Degree Days  
Heating Degree Days 30    
Moisture  
Dew Point 32 °F    
Average Humidity 94    
Maximum Humidity 98    
Minimum Humidity 76    
Precipitation  
Precipitation 0.22 in - - ()
Sea Level Pressure  
Sea Level Pressure 29.87 in    
Wind  
Wind Speed 7 mph (ENE)    
Max Wind Speed 13 mph    
Max Gust Speed 17 mph    
Visibility 4 miles    
Events      
Averages and records for this station are not official NWS values.
T = Trace of Precipitation, MM = Missing Value Source: NWS Daily Summary

Daily Weather History Graph

Daily Weather History Graph

Search for Another Location

Airport or City:

Trip Planner

Search our weather history database for the weather conditions in past years. The results will help you decide how hot, cold, wet, or windy it might be!

Date:

Astronomy

Dec. 09, 2012 Rise Set
Actual Time 7:18 AM CST 4:22 PM CST
Civil Twilight 6:46 AM CST 4:55 PM CST
Nautical Twilight 6:10 AM CST 5:31 PM CST
Astronomical Twilight 5:35 AM CST 6:05 PM CST
Moon 2:46 AM CST (12/9) 1:34 PM CST (12/9)
Length of Visible Light 10h 09m
Length of Day
9h 04m
Waning Crescent, 18% of the Moon is Illuminated
Dec 9
Waning Crescent
Dec 13
New
Dec 19
First Quarter
Dec 28
Full
Jan 4
Last Quarter

Hourly Weather History & Observations

Time (CST) Temp. Windchill Dew Point Humidity Pressure Visibility Wind Dir Wind Speed Gust Speed Precip Events Conditions
12:15 AM 34.3 °F 30.2 °F 28.6 °F 79% 30.08 in 10.0 mi East 4.6 mph - N/A   Overcast
12:35 AM 34.3 °F 28.4 °F 28.8 °F 80% 30.08 in 10.0 mi East 6.9 mph - N/A   Overcast
1:15 AM 33.6 °F 26.8 °F 28.4 °F 81% 30.05 in 10.0 mi East 8.1 mph - N/A   Overcast
1:35 AM 33.3 °F 27.1 °F 28.8 °F 84% 30.05 in 10.0 mi East 6.9 mph - N/A   Scattered Clouds
1:55 AM 33.8 °F 27.0 °F 29.7 °F 85% 30.05 in 10.0 mi ESE 8.1 mph - N/A   Clear
2:15 AM 34.0 °F 27.2 °F 30.2 °F 86% 30.05 in 10.0 mi East 8.1 mph - N/A   Scattered Clouds
2:35 AM 34.7 °F 29.6 °F 30.4 °F 84% 30.05 in 10.0 mi East 5.8 mph - N/A   Mostly Cloudy
2:55 AM 34.9 °F 27.7 °F 30.4 °F 84% 30.05 in 10.0 mi East 9.2 mph - N/A   Overcast
3:15 AM 34.3 °F 26.5 °F 30.2 °F 85% 30.03 in 10.0 mi East 10.4 mph - N/A   Overcast
3:35 AM 33.8 °F 27.7 °F 29.8 °F 85% 30.02 in 10.0 mi East 6.9 mph - N/A   Overcast
3:55 AM 34.3 °F 28.4 °F 30.2 °F 85% 30.01 in 10.0 mi East 6.9 mph - N/A   Overcast
4:15 AM 34.9 °F 29.0 °F 30.2 °F 83% 30.01 in 10.0 mi ENE 6.9 mph - N/A   Overcast
4:35 AM 34.9 °F 27.7 °F 30.2 °F 83% 30.01 in 10.0 mi East 9.2 mph - N/A   Overcast
4:55 AM 35.1 °F 29.3 °F 30.0 °F 82% 30.00 in 10.0 mi East 6.9 mph - N/A   Overcast
5:15 AM 36.5 °F 28.2 °F 29.5 °F 76% 30.01 in 10.0 mi ESE 12.7 mph 17.3 mph N/A   Overcast
5:55 AM 35.1 °F 27.4 °F 31.1 °F 85% 30.01 in 2.0 mi East 10.4 mph - N/A   Overcast
6:15 AM 34.5 °F 28.6 °F 32.4 °F 92% 30.00 in 1.5 mi East 6.9 mph - N/A   Overcast
6:35 AM 34.2 °F 27.5 °F 32.9 °F 95% 30.00 in 1.5 mi East 8.1 mph - N/A   Overcast
6:55 AM 34.0 °F 26.6 °F 32.9 °F 96% 29.99 in 1.5 mi ENE 9.2 mph - 0.01 in   Overcast
7:15 AM 33.8 °F 27.0 °F 32.9 °F 96% 29.99 in 1.8 mi ENE 8.1 mph - N/A   Overcast
7:35 AM 33.8 °F 27.0 °F 32.9 °F 96% 29.99 in 1.2 mi ENE 8.1 mph - N/A   Overcast
7:55 AM 33.8 °F 27.0 °F 32.9 °F 96% 29.98 in 0.8 mi ENE 8.1 mph - 0.01 in   Overcast
8:35 AM 33.8 °F 27.0 °F 32.9 °F 96% 29.97 in 0.8 mi ENE 8.1 mph - 0.01 in   Overcast
8:55 AM 33.8 °F 26.4 °F 32.9 °F 96% 29.95 in 0.8 mi ENE 9.2 mph - 0.01 in   Overcast
9:15 AM 34.0 °F 28.0 °F 33.1 °F 96% 29.95 in 1.0 mi East 6.9 mph - 0.01 in   Overcast
9:35 AM 34.0 °F 26.6 °F 33.1 °F 96% 29.94 in 1.0 mi East 9.2 mph - 0.01 in   Overcast
9:55 AM 34.2 °F 26.8 °F 33.3 °F 97% 29.93 in 1.2 mi ENE 9.2 mph - 0.01 in   Overcast
10:15 AM 34.2 °F 28.2 °F 33.3 °F 97% 29.92 in 0.8 mi East 6.9 mph - 0.01 in   Overcast
10:35 AM 34.2 °F 28.2 °F 33.3 °F 97% 29.91 in 0.8 mi ENE 6.9 mph - 0.02 in   Overcast
10:55 AM 34.2 °F 28.2 °F 33.3 °F 97% 29.90 in 0.8 mi ENE 6.9 mph - 0.04 in   Overcast
11:15 AM 34.3 °F 28.4 °F 33.4 °F 97% 29.88 in 0.8 mi ENE 6.9 mph - 0.02 in   Overcast
11:35 AM 34.3 °F 30.2 °F 33.4 °F 97% 29.88 in 0.5 mi ENE 4.6 mph - 0.04 in   Overcast
11:55 AM 34.2 °F 29.0 °F 33.3 °F 97% 29.86 in 0.5 mi ENE 5.8 mph - 0.07 in   Overcast
12:15 PM 34.2 °F 29.0 °F 33.6 °F 98% 29.85 in 0.5 mi ENE 5.8 mph - 0.02 in   Overcast
12:35 PM 34.2 °F 28.2 °F 33.6 °F 98% 29.83 in 0.5 mi ENE 6.9 mph - 0.04 in   Overcast
12:55 PM 34.3 °F 28.4 °F 33.4 °F 97% 29.82 in 0.8 mi ENE 6.9 mph - 0.05 in   Overcast
1:15 PM 34.3 °F 27.7 °F 33.4 °F 97% 29.81 in 1.2 mi ENE 8.1 mph - 0.01 in   Overcast
1:35 PM 34.3 °F 29.2 °F 33.4 °F 97% 29.80 in 1.8 mi East 5.8 mph - 0.01 in   Overcast
1:55 PM 34.7 °F 28.1 °F 33.8 °F 97% 29.79 in 2.5 mi ENE 8.1 mph - 0.01 in   Overcast
2:35 PM 34.7 °F 27.5 °F 33.6 °F 96% 29.77 in 3.0 mi East 9.2 mph - N/A   Overcast
2:55 PM 34.9 °F 29.9 °F 33.8 °F 96% 29.78 in 2.5 mi East 5.8 mph - N/A   Overcast
3:15 PM 34.7 °F 28.1 °F 33.8 °F 97% 29.76 in 2.0 mi East 8.1 mph - N/A   Overcast
3:35 PM 34.7 °F 28.8 °F 33.8 °F 97% 29.77 in 3.0 mi East 6.9 mph - N/A   Overcast
3:55 PM 34.7 °F 26.9 °F 33.6 °F 96% 29.76 in 4.0 mi East 10.4 mph 16.1 mph N/A   Overcast
4:15 PM 34.7 °F 28.1 °F 33.4 °F 95% 29.76 in 2.5 mi East 8.1 mph - N/A   Overcast
4:35 PM 34.5 °F 27.9 °F 33.4 °F 96% 29.75 in 1.8 mi East 8.1 mph - N/A   Overcast
4:55 PM 34.3 °F 29.2 °F 33.4 °F 97% 29.75 in 3.0 mi East 5.8 mph - N/A   Overcast
5:15 PM 34.3 °F 29.2 °F 33.4 °F 97% 29.74 in 4.0 mi East 5.8 mph - N/A   Overcast
5:55 PM 34.3 °F 31.4 °F 33.6 °F 97% 29.75 in 2.0 mi ENE 3.5 mph - N/A   Overcast
6:15 PM 34.0 °F - 33.3 °F 97% 29.75 in 1.8 mi Calm Calm - 0.01 in   Overcast
6:35 PM 33.8 °F 30.8 °F 33.1 °F 97% 29.74 in 2.0 mi North 3.5 mph - 0.01 in   Overcast
6:55 PM 33.8 °F 29.6 °F 33.3 °F 98% 29.73 in 3.0 mi NNE 4.6 mph - 0.01 in   Overcast
7:15 PM 34.0 °F 31.0 °F 33.4 °F 98% 29.73 in 4.0 mi NNE 3.5 mph - N/A   Overcast
7:35 PM 33.8 °F 28.6 °F 33.3 °F 98% 29.71 in 4.0 mi NE 5.8 mph - N/A   Overcast
7:55 PM 33.8 °F 30.8 °F 33.3 °F 98% 29.71 in 5.0 mi NNE 3.5 mph - N/A   Overcast
8:35 PM 33.8 °F - 33.3 °F 98% 29.71 in 5.0 mi Calm Calm - N/A   Overcast
8:55 PM 33.8 °F 30.8 °F 33.3 °F 98% 29.71 in 4.0 mi WNW 3.5 mph - N/A   Overcast
9:15 PM 33.8 °F 29.6 °F 33.3 °F 98% 29.71 in 2.0 mi West 4.6 mph - N/A   Overcast
9:35 PM 34.0 °F - 33.4 °F 98% 29.71 in 2.0 mi Calm Calm - N/A   Overcast
9:55 PM 34.0 °F 31.0 °F 33.4 °F 98% 29.70 in 2.5 mi WNW 3.5 mph - N/A   Overcast
10:15 PM 34.0 °F 29.8 °F 33.4 °F 98% 29.70 in 4.0 mi West 4.6 mph - N/A   Overcast
10:35 PM 34.0 °F 29.8 °F 33.4 °F 98% 29.70 in 4.0 mi West 4.6 mph - N/A   Overcast
10:55 PM 33.8 °F 29.6 °F 33.3 °F 98% 29.70 in 5.0 mi West 4.6 mph - N/A   Overcast
11:15 PM 33.8 °F 29.6 °F 33.3 °F 98% 29.70 in 5.0 mi West 4.6 mph - N/A   Overcast
11:35 PM 33.8 °F 29.6 °F 33.3 °F 98% 29.69 in 4.0 mi West 4.6 mph - N/A   Overcast
11:55 PM 33.8 °F 28.6 °F 33.1 °F 97% 29.69 in 2.0 mi West 5.8 mph - N/A   Overcast